Location: Newark
(45.7667°N, 11.5167°E)
Time: 20:50:35
(UTC+00:00)

Envisat - Pass Details

Date: 26 January 2020
Orbit: 764 x 766 km, 98.1° (Epoch: 22 February)

Event Time Altitude Azimuth Distance (km) Brightness Sun altitude
Rises 16:50:30 0° 162° (SSE) 3,220 6.3 -7.3°
Reaches altitude 10° 16:52:47 10° 161° (SSE) 2,298 5.5 -7.7°
Maximum altitude 16:57:51 81° 75° (ENE) 781 3.0 -8.5°
Drops below altitude 10° 17:02:58 10° 348° (NNW) 2,314 5.4 -9.3°
Sets 17:05:17 0° 348° (NNW) 3,244 6.2 -9.7°
